�N����,����,�~����,�C��,���x,�C��,����,���ϕ���,�ő�u�ԕ���,�ő厞����,���˗�,�I�_���x,�n�����x,�ő啗���N��,DTYPE
"19/07/11","00:10",0.0,24.0,74.5,1005.0,101.1,1.5,3.2,91.9,0.00,19.2,23.9,"00:06:16",1
"19/07/11","00:20",0.0,23.9,74.5,1005.0,95.9,1.6,2.9,135.8,0.00,19.1,23.8,"00:14:48",1
"19/07/11","00:30",0.0,24.0,74.5,1004.8,98.5,1.6,3.7,115.9,0.00,19.2,23.9,"00:22:16",1
"19/07/11","00:40",0.0,23.9,75.0,1005.0,80.6,0.7,2.7,95.8,0.00,19.2,23.9,"00:30:16",1
"19/07/11","00:50",0.0,23.8,76.1,1005.0,81.9,0.8,2.1,172.6,0.00,19.4,23.7,"00:47:44",1
"19/07/11","01:00",0.0,23.6,76.5,1005.2,81.7,1.2,2.9,41.9,0.00,19.3,23.7,"00:56:24",1
"19/07/11","01:10",0.0,23.7,76.4,1005.0,86.1,1.1,2.9,119.7,0.00,19.3,23.8,"01:02:00",1
"19/07/11","01:20",0.0,23.6,76.4,1005.0,102.2,1.3,4.7,111.8,0.00,19.2,23.7,"01:13:44",1
"19/07/11","01:30",0.0,23.6,76.6,1004.8,98.0,1.3,3.2,119.4,0.00,19.3,23.9,"01:26:08",1
"19/07/11","01:40",0.0,23.4,77.6,1004.8,101.9,1.1,2.7,97.9,0.00,19.3,23.6,"01:32:24",1
"19/07/11","01:50",0.0,23.2,78.5,1004.8,100.3,0.8,2.7,107.7,0.00,19.3,23.5,"01:45:04",1
"19/07/11","02:00",0.0,23.1,79.0,1005.0,105.6,0.6,1.1,110.8,0.00,19.3,23.7,"01:50:56",1
"19/07/11","02:10",0.0,23.2,79.0,1004.5,52.8,1.0,2.4,92.8,0.00,19.4,23.4,"02:06:24",1
"19/07/11","02:20",0.0,23.1,79.1,1004.3,68.0,0.8,2.8,109.9,0.00,19.3,23.5,"02:11:04",1
"19/07/11","02:30",0.0,23.1,79.5,1005.0,29.3,1.0,2.7,29.7,0.00,19.4,23.4,"02:24:40",1
"19/07/11","02:40",0.0,23.0,79.8,1004.5,348.7,0.6,1.9,28.5,0.00,19.4,23.5,"02:30:32",1
"19/07/11","02:50",0.0,22.9,80.5,1005.0,324.3,0.7,1.4,356.2,0.00,19.4,23.4,"02:48:56",1
"19/07/11","03:00",0.0,22.8,81.1,1004.3,313.7,1.0,1.6,322.4,0.00,19.4,23.4,"02:58:56",1
"19/07/11","03:10",0.0,22.6,81.9,1004.5,313.8,0.8,1.7,326.0,0.00,19.4,23.3,"03:03:12",1
"19/07/11","03:20",0.0,22.6,82.2,1004.8,45.8,0.5,1.9,353.7,0.00,19.5,23.2,"03:10:56",1
"19/07/11","03:30",0.2,22.6,82.3,1004.5,328.6,1.0,1.8,330.2,0.00,19.5,23.5,"03:22:48",1
"19/07/11","03:40",0.0,22.4,83.0,1004.5,335.3,1.0,1.6,336.6,0.00,19.4,23.1,"03:35:12",1
"19/07/11","03:50",0.0,22.3,83.7,1004.5,335.2,1.1,2.1,336.5,0.00,19.4,23.2,"03:42:24",1
"19/07/11","04:00",0.0,22.2,84.3,1004.8,317.2,0.8,2.1,329.0,0.00,19.5,23.4,"03:56:56",1
"19/07/11","04:10",0.0,22.1,84.9,1004.8,333.8,1.3,1.9,334.0,0.00,19.5,23.3,"04:04:16",1
"19/07/11","04:20",0.0,22.1,85.4,1004.5,330.0,1.0,2.5,324.5,0.00,19.6,23.2,"04:17:12",1
"19/07/11","04:30",0.2,22.0,86.0,1004.8,333.9,1.0,2.2,337.8,0.00,19.6,23.4,"04:25:04",1
"19/07/11","04:40",0.2,22.0,86.4,1005.0,322.1,0.8,1.9,331.8,0.00,19.7,23.2,"04:33:04",1
"19/07/11","04:50",0.4,21.8,87.0,1005.2,332.3,1.0,1.4,324.5,0.00,19.6,23.2,"04:40:40",1
"19/07/11","05:00",0.4,21.6,87.7,1005.0,336.1,0.7,1.4,339.9,0.00,19.5,23.2,"04:51:04",1
"19/07/11","05:10",1.2,21.5,88.8,1005.0,311.9,0.6,1.1,328.9,0.00,19.6,23.1,"05:01:44",1
"19/07/11","05:20",0.8,21.4,89.5,1005.0,328.6,0.8,1.4,344.4,0.00,19.6,23.0,"05:15:38",1
"19/07/11","05:30",0.4,21.2,90.2,1005.2,296.0,0.6,1.1,324.9,0.00,19.6,23.1,"05:29:44",1
"19/07/11","05:40",0.2,21.2,90.7,1005.5,309.7,1.0,1.2,334.8,0.00,19.7,23.0,"05:37:50",1
"19/07/11","05:50",0.0,21.2,91.3,1005.7,304.4,0.7,1.1,299.0,0.00,19.8,23.1,"05:43:16",1
"19/07/11","06:00",0.2,21.2,91.6,1005.5,292.6,0.8,1.3,311.5,0.00,19.8,23.1,"05:56:24",1
"19/07/11","06:10",0.0,21.2,91.8,1005.5,299.3,0.8,1.4,324.6,0.00,19.9,23.0,"06:06:30",1
"19/07/11","06:20",0.0,21.3,92.3,1005.7,282.9,0.7,1.2,308.0,0.00,20.0,22.9,"06:18:16",1
"19/07/11","06:30",0.2,21.3,92.5,1006.0,286.3,0.8,1.3,255.0,0.00,20.1,23.0,"06:20:32",1
"19/07/11","06:40",0.2,21.4,92.9,1005.7,259.1,0.5,0.9,255.4,0.00,20.2,23.2,"06:32:24",1
"19/07/11","06:50",0.2,21.5,92.9,1005.7,314.2,0.6,1.1,307.8,0.00,20.3,23.1,"06:41:20",1
"19/07/11","07:00",0.6,21.5,92.8,1005.5,10.2,0.3,1.0,332.5,0.00,20.3,23.0,"06:51:28",1
"19/07/11","07:10",0.6,21.5,92.9,1005.7,119.8,0.6,1.3,116.4,0.00,20.3,23.1,"07:05:12",1
"19/07/11","07:20",0.6,21.5,92.9,1005.7,116.5,1.0,4.1,104.4,0.00,20.3,23.0,"07:13:44",1
"19/07/11","07:30",0.4,21.5,93.0,1005.5,142.9,0.5,1.3,103.7,0.00,20.4,22.9,"07:23:26",1
"19/07/11","07:40",0.2,21.5,93.1,1005.2,100.1,0.6,1.8,124.0,0.00,20.4,23.1,"07:30:02",1
"19/07/11","07:50",0.2,21.7,93.2,1005.7,19.6,0.5,1.4,118.4,0.01,20.6,22.8,"07:40:46",1
"19/07/11","08:00",0.0,21.7,93.1,1005.5,0.4,0.3,1.4,8.3,0.02,20.6,23.0,"07:52:00",1
"19/07/11","08:10",0.4,21.7,93.2,1005.0,66.7,0.3,1.8,39.9,0.01,20.6,23.0,"08:00:48",1
"19/07/11","08:20",0.6,21.7,93.2,1005.2,102.8,0.6,2.5,119.7,0.01,20.6,23.0,"08:16:32",1
"19/07/11","08:30",0.6,21.7,93.1,1005.7,45.3,0.6,2.2,105.8,0.01,20.6,22.8,"08:24:44",1
"19/07/11","08:40",0.6,21.7,93.3,1005.7,83.7,0.7,2.7,62.7,0.01,20.6,22.8,"08:37:40",1
"19/07/11","08:50",0.2,21.6,93.2,1005.5,108.4,0.8,2.1,117.6,0.01,20.5,23.2,"08:48:24",1
"19/07/11","09:00",0.2,21.7,92.8,1005.5,87.8,0.7,2.1,108.9,0.02,20.5,22.9,"08:50:34",1
"19/07/11","09:10",0.2,21.6,92.8,1005.5,97.4,0.7,2.0,96.5,0.02,20.4,22.9,"09:08:06",1
"19/07/11","09:20",0.0,21.7,92.8,1005.5,113.3,1.0,2.7,107.6,0.02,20.5,22.9,"09:13:18",1
"19/07/11","09:30",0.2,21.7,92.8,1005.2,92.0,0.8,2.2,113.8,0.03,20.5,22.9,"09:28:38",1
"19/07/11","09:40",0.4,21.8,92.7,1005.0,107.1,0.8,1.8,121.4,0.05,20.6,23.0,"09:30:08",1
"19/07/11","09:50",0.2,21.8,92.7,1004.8,104.9,1.1,2.4,117.1,0.05,20.6,23.1,"09:48:48",1
"19/07/11","10:00",0.2,21.9,92.6,1005.0,95.2,0.6,2.1,117.3,0.04,20.7,22.9,"09:51:30",1
"19/07/11","10:10",0.4,21.8,92.7,1005.2,106.3,0.8,2.7,118.6,0.04,20.6,23.1,"10:06:58",1
"19/07/11","10:20",0.4,21.6,92.6,1005.0,104.5,0.8,2.2,111.2,0.01,20.4,22.9,"10:13:44",1
"19/07/11","10:30",0.2,21.6,92.7,1005.0,110.3,0.7,1.9,118.9,0.01,20.4,22.9,"10:21:52",1
"19/07/11","10:40",0.4,21.6,92.7,1005.0,122.6,0.7,1.8,120.2,0.01,20.4,23.1,"10:30:16",1
"19/07/11","10:50",0.4,21.4,92.8,1004.8,94.3,0.8,1.6,81.7,0.01,20.2,22.9,"10:44:02",1
"19/07/11","11:00",0.2,21.5,92.9,1004.8,142.1,0.3,1.6,103.6,0.01,20.3,23.0,"10:53:16",1
"19/07/11","11:10",0.4,21.4,92.8,1004.5,84.3,0.7,1.6,102.9,0.02,20.2,22.9,"11:04:34",1
"19/07/11","11:20",0.4,21.5,93.0,1004.5,141.1,0.7,1.7,117.9,0.02,20.4,22.9,"11:16:48",1
"19/07/11","11:30",0.4,21.5,93.2,1004.8,140.7,0.7,2.1,121.1,0.03,20.4,23.0,"11:29:44",1
"19/07/11","11:40",0.6,21.4,93.1,1004.5,104.2,0.8,2.4,94.4,0.02,20.3,22.8,"11:34:24",1
"19/07/11","11:50",0.4,21.4,93.2,1004.8,130.0,0.8,1.9,135.0,0.03,20.3,23.1,"11:46:54",1
"19/07/11","12:00",0.4,21.5,93.2,1004.8,118.8,0.6,1.7,131.6,0.04,20.4,23.0,"11:58:16",1
"19/07/11","12:10",0.2,21.7,93.3,1004.5,138.5,0.6,1.7,115.5,0.03,20.6,23.0,"12:05:28",1
"19/07/11","12:20",0.4,21.6,93.0,1004.5,108.4,0.6,1.9,139.4,0.04,20.5,22.9,"12:14:28",1
"19/07/11","12:30",0.2,21.7,93.1,1004.3,92.2,0.3,1.2,321.9,0.05,20.6,22.7,"12:27:12",1
"19/07/11","12:40",0.0,22.0,93.4,1004.1,286.0,0.5,1.3,128.1,0.06,20.9,22.8,"12:34:00",1
"19/07/11","12:50",0.0,22.0,92.9,1003.8,359.6,0.5,1.6,343.5,0.06,20.8,22.9,"12:42:24",1
"19/07/11","13:00",0.0,22.3,92.4,1003.8,107.4,0.8,1.9,18.4,0.09,21.0,23.1,"12:54:32",1
"19/07/11","13:10",0.0,22.2,92.4,1003.6,107.1,0.7,1.9,119.6,0.05,20.9,23.3,"13:05:44",1
"19/07/11","13:20",0.0,22.4,92.1,1004.1,99.6,0.6,2.0,131.2,0.04,21.1,23.0,"13:15:04",1
"19/07/11","13:30",0.4,22.3,91.9,1003.6,87.2,0.8,2.0,106.4,0.05,21.0,23.3,"13:20:08",1
"19/07/11","13:40",0.0,22.2,91.8,1003.8,116.8,1.3,3.1,118.9,0.03,20.8,23.1,"13:36:18",1
"19/07/11","13:50",0.2,22.4,91.3,1003.6,111.5,1.2,4.0,117.8,0.07,21.0,23.2,"13:41:12",1
"19/07/11","14:00",0.0,22.5,91.2,1003.6,76.0,0.5,1.1,73.8,0.05,21.0,23.2,"13:50:08",1
"19/07/11","14:10",0.2,22.4,91.1,1003.8,96.9,0.7,2.7,117.4,0.02,20.9,23.1,"14:03:44",1
"19/07/11","14:20",0.4,22.4,90.9,1003.8,103.3,0.6,1.4,91.8,0.03,20.9,23.2,"14:19:12",1
"19/07/11","14:30",0.2,22.2,91.0,1003.6,90.1,0.8,2.0,109.5,0.04,20.7,23.3,"14:21:52",1
"19/07/11","14:40",0.4,22.1,91.3,1003.4,107.4,0.8,2.1,31.9,0.03,20.7,23.2,"14:30:32",1
"19/07/11","14:50",0.4,22.1,91.4,1003.4,102.6,0.5,1.6,72.8,0.03,20.7,23.3,"14:49:04",1
"19/07/11","15:00",0.6,22.0,91.5,1003.6,100.7,0.7,1.8,119.9,0.03,20.6,23.1,"14:51:52",1
"19/07/11","15:10",0.2,21.9,91.7,1003.4,94.8,0.8,2.1,222.0,0.01,20.5,23.3,"15:08:32",1
"19/07/11","15:20",0.4,21.9,92.0,1003.6,123.8,0.7,1.7,130.9,0.02,20.6,23.1,"15:18:40",1
"19/07/11","15:30",0.4,22.0,92.0,1003.4,52.8,0.3,1.4,105.3,0.02,20.7,23.2,"15:20:40",1
"19/07/11","15:40",0.2,21.7,91.8,1003.4,76.6,0.6,2.2,122.5,0.02,20.3,23.2,"15:36:08",1
"19/07/11","15:50",0.2,21.8,92.3,1003.6,90.4,0.7,1.9,67.3,0.03,20.5,23.2,"15:48:56",1
"19/07/11","16:00",0.2,21.8,92.1,1003.4,68.1,0.5,1.8,344.1,0.01,20.5,23.1,"15:57:04",1
"19/07/11","16:10",0.0,21.8,92.3,1003.6,76.6,0.3,1.4,44.2,0.01,20.5,23.2,"16:02:16",1
"19/07/11","16:20",0.2,22.0,92.7,1003.4,126.7,0.5,1.3,122.6,0.04,20.8,23.2,"16:18:00",1
"19/07/11","16:30",0.0,22.2,92.4,1003.1,76.9,0.5,1.3,71.3,0.08,20.9,23.3,"16:27:36",1
"19/07/11","16:40",0.0,22.0,91.6,1002.9,129.5,0.7,1.7,123.2,0.04,20.6,23.0,"16:31:20",1
"19/07/11","16:50",0.0,21.9,91.8,1002.9,61.5,0.5,1.6,53.5,0.01,20.5,23.2,"16:41:28",1
"19/07/11","17:00",0.2,22.0,91.8,1003.1,51.4,0.6,1.8,71.4,0.02,20.6,23.2,"16:50:16",1
"19/07/11","17:10",0.0,22.0,92.1,1003.1,66.0,0.7,1.6,350.4,0.02,20.7,23.3,"17:06:40",1
"19/07/11","17:20",0.0,22.0,91.4,1002.9,27.6,0.6,2.0,75.8,0.01,20.6,23.2,"17:13:04",1
"19/07/11","17:30",0.0,22.1,91.5,1002.9,78.0,0.7,2.0,121.8,0.01,20.7,23.1,"17:28:08",1
"19/07/11","17:40",0.0,22.1,91.1,1002.9,64.1,0.7,2.0,12.6,0.00,20.6,23.3,"17:36:00",1
"19/07/11","17:50",0.0,22.0,90.9,1003.4,55.1,0.7,1.8,14.0,0.00,20.5,23.1,"17:43:28",1
"19/07/11","18:00",0.0,22.1,90.9,1002.6,17.8,0.5,1.7,319.4,0.00,20.6,23.2,"17:50:32",1
"19/07/11","18:10",0.0,22.0,90.7,1002.4,52.6,0.7,2.2,78.3,0.00,20.4,23.2,"18:08:08",1
"19/07/11","18:20",0.0,22.0,90.5,1003.1,18.4,0.8,2.2,18.3,0.00,20.4,22.9,"18:10:48",1
"19/07/11","18:30",0.0,22.0,90.4,1002.9,15.3,0.5,1.3,115.6,0.00,20.4,23.0,"18:20:32",1
"19/07/11","18:40",0.0,22.0,90.2,1002.9,349.1,0.7,1.8,81.0,0.00,20.4,23.2,"18:33:44",1
"19/07/11","18:50",0.0,21.9,90.1,1002.9,19.8,0.8,2.5,351.6,0.00,20.2,23.0,"18:47:12",1
"19/07/11","19:00",0.2,21.9,90.0,1002.9,7.4,1.0,2.6,342.5,0.00,20.2,23.1,"18:52:00",1
"19/07/11","19:10",0.0,21.8,90.0,1002.9,2.7,0.8,2.2,347.0,0.00,20.1,23.1,"19:00:24",1
"19/07/11","19:20",0.0,21.9,90.0,1002.2,16.7,0.7,2.6,32.5,0.00,20.2,22.8,"19:19:12",1
"19/07/11","19:30",0.0,21.8,89.8,1002.9,26.6,0.6,1.7,12.0,0.00,20.1,22.7,"19:25:52",1
"19/07/11","19:40",0.0,21.8,89.7,1002.4,20.9,0.8,2.5,75.3,0.00,20.1,22.9,"19:32:40",1
"19/07/11","19:50",0.0,21.8,89.4,1002.6,10.0,0.5,1.6,340.5,0.00,20.0,22.9,"19:44:40",1
"19/07/11","20:00",0.0,21.7,89.4,1002.9,44.6,0.7,1.8,49.3,0.00,19.9,22.9,"19:57:52",1
"19/07/11","20:10",0.0,21.7,89.5,1002.6,5.2,0.7,2.1,347.4,0.00,19.9,22.7,"20:00:40",1
"19/07/11","20:20",0.0,21.8,89.7,1002.2,330.7,0.7,1.3,337.6,0.00,20.1,22.8,"20:19:52",1
"19/07/11","20:30",0.0,21.6,89.6,1002.4,351.3,0.7,1.6,357.9,0.00,19.9,22.9,"20:27:52",1
"19/07/11","20:40",0.0,21.6,89.5,1002.2,354.3,0.5,1.6,333.0,0.00,19.8,23.0,"20:33:04",1
"19/07/11","20:50",0.0,21.6,89.3,1002.4,19.3,0.7,2.2,350.3,0.00,19.8,22.8,"20:46:40",1
"19/07/11","21:00",0.2,21.6,89.3,1002.9,266.4,0.3,1.0,245.9,0.00,19.8,22.7,"20:53:28",1
"19/07/11","21:10",0.0,21.6,89.7,1002.9,319.1,0.7,2.2,341.5,0.00,19.9,22.9,"21:04:24",1
"19/07/11","21:20",0.6,21.5,90.3,1002.6,258.4,0.3,0.9,243.3,0.00,19.9,22.7,"21:18:00",1
"19/07/11","21:30",1.8,21.4,90.8,1002.4,318.5,0.5,1.2,323.3,0.00,19.9,22.6,"21:26:32",1
"19/07/11","21:40",2.2,21.2,91.5,1002.6,261.9,0.6,1.2,244.6,0.00,19.8,22.5,"21:30:12",1
"19/07/11","21:50",2.6,21.1,91.7,1002.9,280.3,0.5,1.0,318.9,0.00,19.7,22.5,"21:40:56",1
"19/07/11","22:00",2.0,20.9,92.5,1002.9,290.4,0.6,1.1,320.4,0.00,19.7,22.4,"21:53:04",1
"19/07/11","22:10",4.2,20.9,92.8,1002.9,276.4,0.7,1.4,245.3,0.00,19.7,22.1,"22:04:44",1
"19/07/11","22:20",2.4,20.8,93.2,1003.1,276.8,0.7,1.2,250.6,0.00,19.7,22.2,"22:19:12",1
"19/07/11","22:30",1.0,20.7,93.4,1003.4,236.9,0.6,1.2,229.5,0.00,19.6,21.8,"22:29:36",1
"19/07/11","22:40",1.6,20.7,93.6,1002.9,231.9,0.8,1.7,226.5,0.00,19.7,21.9,"22:34:00",1
"19/07/11","22:50",2.2,20.6,93.9,1002.9,213.3,0.3,1.1,136.2,0.00,19.6,21.7,"22:48:00",1
"19/07/11","23:00",0.2,20.5,94.2,1003.1,272.8,0.6,1.0,290.4,0.00,19.6,21.8,"22:56:04",1
"19/07/11","23:10",0.4,20.6,94.4,1002.9,280.8,0.6,1.0,271.3,0.00,19.7,21.8,"23:03:44",1
"19/07/11","23:20",0.0,20.5,94.5,1003.1,290.1,0.6,1.0,315.8,0.00,19.6,21.7,"23:19:14",1
"19/07/11","23:30",0.0,20.5,94.7,1002.9,292.9,0.6,0.9,291.4,0.00,19.7,21.9,"23:26:26",1
"19/07/11","23:40",0.0,20.5,94.8,1003.1,309.8,0.7,1.4,315.4,0.00,19.7,21.9,"23:37:32",1
"19/07/11","23:50",0.0,20.5,94.8,1002.9,320.9,0.5,1.2,242.7,0.00,19.7,21.8,"23:48:28",1
"19/07/11","24:00",0.2,20.5,95.1,1002.9,310.3,0.6,1.2,336.1,0.00,19.7,22.1,"23:57:12",1
